Regional Weather Roundup
Issued by NWS

Home | Current Version | Previous Version | Text Only | Print | Product List | Glossary On
Versions: 1 2 3 4 5 6 7 8 9 10 11 12 13 14 15 16 17 18 19 20 21 22 23 24 25 26 27 28 29 30 31 32 33 34 35 36 37 38 39 40 41 42 43 44 45 46 47 48 49 50
000
ASUS44 KFWD 050303
RWRTX
NORTH TEXAS HOURLY WEATHER ROUNDUP
NATIONAL WEATHER SERVICE FORT WORTH TX
1000 PM CDT SAT JUL 04 2015

NOTE: "FAIR" INDICATES FEW OR NO CLOUDS BELOW 12,000 FEET WITH NO
SIGNIFICANT WEATHER AND/OR OBSTRUCTIONS TO VISIBILITY.

TXZ118-119-050400-
DALLAS/FORT WORTH METROPLEX

CITY           SKY/WX    TMP DP  RH WIND       PRES   REMARKS
DFW AIRPORT    MOCLDY    86  70  58 SE8       29.93R HX  90
DALLAS LOVE    MOCLDY    88  70  55 S14       29.94R HX  93
FTW MEACHAM    PTCLDY    88  70  55 S12       29.93R HX  93
DAL-EXECUTIVE  PTCLDY    85  71  63 S9        29.94R HX  90
FTW-ALLIANCE   PTCLDY    85  70  60 S10       29.93R
FTW-NAS-JRB    MOCLDY    88  71  57 S13       29.93R HX  94
FTW-SPINKS     MOCLDY    85  70  61 S10       29.96R
ARLINGTON      PTCLDY    87  69  54 SE13      29.94R HX  91
GRAND PRAIRIE  PTCLDY    85  72  64 SE5       29.96R HX  91
ADDISON        MOCLDY    86  70  58 SE13G21   29.95R HX  90
MESQUITE       MOCLDY    82  71  69 SE6       29.95R
LANCASTER      MOCLDY    83  70  64 S8        29.96R
$$

TXZ091>094-102>105-117-120-121-131>134-050400-
NORTH CENTRAL TEXAS

CITY           SKY/WX    TMP DP  RH WIND       PRES   REMARKS
SHRMAN/DENISON MOCLDY    74  71  88 E14       29.98R
GAINESVILLE    CLEAR     79  73  81 E6        29.97R
BRIDGEPORT     MOCLDY    83  71  66 SE6       29.94R
DECATUR        MOCLDY    83  68  59 SE7       29.95R
DENTON         PTCLDY    83  71  67 SE7       29.93R
MCKINNEY       MOCLDY    82  73  74 SE7       29.95R
ROCKWALL       MOCLDY    82  73  74 S5        29.94R
TERRELL        CLOUDY    82  74  76 S7        29.95R
WAXAHACHIE     MOCLDY    82  72  71 SE8       29.97R
CLEBURNE       CLOUDY    82  75  78 SE12      29.97R
GRANBURY         N/A     87  70  56 SE9       29.94R HX  91
$$

TXZ083>090-098>101-113>116-127>130-139>142-154-155-050400-
WESTERN NORTH TEXAS

CITY           SKY/WX    TMP DP  RH WIND       PRES   REMARKS
WICHITA FALLS  MOCLDY    79  69  71 SE8       29.90R
WF-KICKAPOO    MOCLDY    85  68  56 S6        29.92R
VERNON         CLOUDY    83  63  50 SE8       29.91R
ABILENE        CLEAR     81  64  56 SE7       29.95R
ABILENE-DYESS  CLEAR     79  66  64 S6        29.94R
BRECKENRIDGE   CLEAR     83  65  55 SE7       29.92R
GRAHAM         CLEAR     82  69  65 E3        29.91R
MINERAL WELLS  MOCLDY    82  71  69 SE7       29.92R
STEPHENVILLE   PTCLDY    82  68  63 S6        29.98R
COMANCHE       CLEAR     80  68  67 S6        29.96R
COLEMAN        CLEAR     81  67  62 S6        29.96R
BRADY          CLEAR     82  66  57 N10       29.97R
$$

TXZ143>147-156>162-174-175-050400-
CENTRAL TEXAS

CITY           SKY/WX    TMP DP  RH WIND       PRES   REMARKS
WACO           MOCLDY    83  72  69 S14       29.95R
WACO-TSTC      CLEAR     81  72  74 SE6       29.95R
WACO-MCGREGOR  PTCLDY    82  70  65 S12       29.96R
HILLSBORO      MOCLDY    82  69  65 SE12      29.96R
CORSICANA      MOCLDY    83  73  72 S7        29.98R
MEXIA          MOCLDY    80  73  80 SE16      29.97R
HEARNE         PTCLDY    80  74  81 SE7       29.98R
CAMERON        PTCLDY    81  73  78 S6        29.96R
TEMPLE         CLEAR     81  70  69 SE13      29.96R
KILLEEN        CLEAR     79  72  77 S8        29.96R
KILLEEN-SKYLRK CLEAR     82  70  65 S9        29.96R
FORT HOOD      CLEAR     82  71  69 SE10      29.96R
GATESVILLE     CLEAR     82  72  69 SE3       29.98R
HAMILTON       CLEAR     81  69  67 S10       29.98R
$$

TXZ095>097-106>112-122>126-135>138-148>153-164>167-050400-
EAST TEXAS

CITY           SKY/WX    TMP DP  RH WIND       PRES   REMARKS
PARIS          CLOUDY    73  72  94 S12       29.95F
SULPHUR SPRNGS CLOUDY    77  72  84 E5        30.00R
MOUNT PLEASANT CLOUDY    74  71  89 SE7       30.01R
GILMER         CLOUDY    76  70  82 SE6       30.00R
MINEOLA        CLOUDY    79  73  83 SE6       29.99R
TYLER          CLOUDY    79  70  74 SE13      29.99R
LONGVIEW       CLOUDY    79  71  76 S8        30.00R
MARSHALL       CLOUDY    76  72  86 S5        30.03R
ATHENS         CLOUDY    81  72  74 S3        29.97R
PALESTINE      MOCLDY    82  73  76 SE3       29.99R
JACKSONVILLE   CLOUDY    75  73  94 SE7       30.03S
HENDERSON      CLOUDY    74  72  92 S5        30.03R
CENTER         FAIR      72  71  97 CALM      30.02R
NACOGDOCHES    CLOUDY   N/A N/A N/A SE6       30.02R
LUFKIN         MOCLDY    77  73  87 E5        30.02R
$$

SUPPLEMENTAL OBSERVATIONS (CENTRAL)

CITY           SKY/WX    TMP DP  RH WIND       PRES   REMARKS
$$

SUPPLEMENTAL OBSERVATIONS (WEST)

CITY           SKY/WX    TMP DP  RH WIND       PRES   REMARKS
$$

SUPPLEMENTAL OBSERVATIONS (EAST)

CITY           SKY/WX    TMP DP  RH WIND       PRES   REMARKS
$$

SUPPLEMENTAL OBSERVATIONS ARE A COLLECTION OF AUTOMATED INSTRUMENTS
THAT ARE MAINTAINED BY A VARIETY OF FEDERAL AND STATE AGENCIES.
CERTAIN ELEMENTS...SUCH AS HUMIDITY VALUES AND SUSTAINED WIND
SPEEDS...MAY BE APPROXIMATED.



USA.gov is the U.S. government's official web portal to all federal, state and local government web resources and services.